Time,TemperatureF,DewpointF,PressureIn,WindDirection,WindDirectionDegrees,WindSpeedMPH,WindSpeedGustMPH,Humidity,HourlyPrecipIn,Conditions,Clouds,dailyrainin,SoftwareType,DateUTC
2013-10-11 00:01:00,53.9,52.8,30.03,NE,34,0.0,0.0,96,0.00,,,0.00,WUHU216DAVISVP2,2013-10-11 04:01:00,
2013-10-11 00:02:00,53.9,52.8,30.03,NE,34,0.0,0.0,96,0.00,,,0.00,WUHU216DAVISVP2,2013-10-11 04:02:00,
2013-10-11 00:07:00,53.9,52.8,30.03,NE,34,1.0,1.0,96,0.00,,,0.00,WUHU216DAVISVP2,2013-10-11 04:07:00,
2013-10-11 00:12:00,54.1,52.9,30.02,NE,34,0.0,1.0,96,0.00,,,0.00,WUHU216DAVISVP2,2013-10-11 04:12:00,
2013-10-11 00:17:00,54.4,53.2,30.02,NE,34,0.0,0.0,96,0.00,,,0.00,WUHU216DAVISVP2,2013-10-11 04:17:00,
2013-10-11 00:22:00,54.7,53.5,30.02,NE,34,0.0,0.0,96,0.00,,,0.00,WUHU216DAVISVP2,2013-10-11 04:22:00,
2013-10-11 00:27:00,55.0,53.8,30.02,NE,34,0.0,0.0,96,0.00,,,0.00,WUHU216DAVISVP2,2013-10-11 04:27:00,
2013-10-11 00:32:00,54.9,53.7,30.02,NE,34,1.0,1.0,96,0.00,,,0.00,WUHU216DAVISVP2,2013-10-11 04:32:00,
2013-10-11 00:37:00,54.9,53.7,30.02,NE,34,0.0,1.0,96,0.00,,,0.00,WUHU216DAVISVP2,2013-10-11 04:37:00,
2013-10-11 00:42:00,54.9,53.7,30.02,NE,34,0.0,1.0,96,0.00,,,0.00,WUHU216DAVISVP2,2013-10-11 04:42:00,
2013-10-11 00:47:00,54.9,53.7,30.02,NE,34,0.0,1.0,96,0.00,,,0.00,WUHU216DAVISVP2,2013-10-11 04:47:00,
2013-10-11 00:52:00,54.9,53.7,30.02,NE,34,0.0,0.0,96,0.00,,,0.00,WUHU216DAVISVP2,2013-10-11 04:52:00,
2013-10-11 00:57:00,54.9,53.7,30.02,NE,34,0.0,0.0,96,0.00,,,0.00,WUHU216DAVISVP2,2013-10-11 04:57:00,
2013-10-11 01:02:00,55.0,53.8,30.02,NE,34,0.0,0.0,96,0.00,,,0.00,WUHU216DAVISVP2,2013-10-11 05:02:00,
2013-10-11 01:07:00,55.1,53.9,30.01,NE,34,0.0,0.0,96,0.00,,,0.00,WUHU216DAVISVP2,2013-10-11 05:07:00,
2013-10-11 01:12:00,55.1,53.9,30.01,NE,34,0.0,0.0,96,0.00,,,0.00,WUHU216DAVISVP2,2013-10-11 05:12:00,
2013-10-11 01:17:00,55.0,53.8,30.01,NE,34,0.0,0.0,96,0.00,,,0.00,WUHU216DAVISVP2,2013-10-11 05:17:00,
2013-10-11 01:22:00,54.9,53.7,30.01,NE,34,0.0,0.0,96,0.00,,,0.00,WUHU216DAVISVP2,2013-10-11 05:22:00,
2013-10-11 01:27:00,54.9,53.7,30.01,NE,34,0.0,0.0,96,0.00,,,0.00,WUHU216DAVISVP2,2013-10-11 05:27:00,
2013-10-11 01:32:00,54.9,53.7,30.01,NE,34,0.0,0.0,96,0.00,,,0.00,WUHU216DAVISVP2,2013-10-11 05:32:00,
2013-10-11 01:37:00,54.8,53.6,30.01,NE,34,0.0,0.0,96,0.00,,,0.00,WUHU216DAVISVP2,2013-10-11 05:37:00,
2013-10-11 01:42:00,54.6,53.4,30.01,NE,34,0.0,0.0,96,0.00,,,0.00,WUHU216DAVISVP2,2013-10-11 05:42:00,
2013-10-11 01:47:00,54.5,53.3,30.01,NE,34,0.0,0.0,96,0.00,,,0.00,WUHU216DAVISVP2,2013-10-11 05:47:00,
2013-10-11 01:52:00,54.6,53.4,30.01,NE,34,0.0,0.0,96,0.00,,,0.00,WUHU216DAVISVP2,2013-10-11 05:52:00,
2013-10-11 01:57:00,54.4,53.2,30.01,NE,34,0.0,0.0,96,0.00,,,0.00,WUHU216DAVISVP2,2013-10-11 05:57:00,
2013-10-11 02:02:00,54.2,53.0,30.01,NE,34,0.0,0.0,96,0.00,,,0.00,WUHU216DAVISVP2,2013-10-11 06:02:00,
2013-10-11 02:07:00,54.1,52.9,30.01,NE,34,0.0,0.0,96,0.00,,,0.00,WUHU216DAVISVP2,2013-10-11 06:07:00,
2013-10-11 02:12:00,54.0,52.9,30.01,NE,34,0.0,0.0,96,0.00,,,0.00,WUHU216DAVISVP2,2013-10-11 06:12:00,
2013-10-11 02:17:00,54.1,52.9,30.01,NE,34,0.0,0.0,96,0.00,,,0.00,WUHU216DAVISVP2,2013-10-11 06:17:00,
2013-10-11 02:22:00,54.1,52.9,30.01,NE,34,0.0,0.0,96,0.00,,,0.00,WUHU216DAVISVP2,2013-10-11 06:22:00,
2013-10-11 02:27:00,54.0,52.9,30.01,NE,34,0.0,0.0,96,0.00,,,0.00,WUHU216DAVISVP2,2013-10-11 06:27:00,
2013-10-11 02:32:00,54.2,53.0,30.01,NE,34,0.0,0.0,96,0.00,,,0.00,WUHU216DAVISVP2,2013-10-11 06:32:00,
2013-10-11 02:37:00,54.3,53.1,30.01,NE,34,0.0,0.0,96,0.00,,,0.00,WUHU216DAVISVP2,2013-10-11 06:37:00,
2013-10-11 02:42:00,54.2,53.0,30.01,NE,34,0.0,0.0,96,0.00,,,0.00,WUHU216DAVISVP2,2013-10-11 06:42:00,
2013-10-11 02:47:00,53.9,52.8,30.01,NE,34,0.0,0.0,96,0.00,,,0.00,WUHU216DAVISVP2,2013-10-11 06:47:00,
2013-10-11 02:52:00,53.9,52.8,30.01,NE,34,0.0,0.0,96,0.00,,,0.00,WUHU216DAVISVP2,2013-10-11 06:52:00,
2013-10-11 02:57:00,53.8,52.7,30.00,NE,34,0.0,0.0,96,0.00,,,0.00,WUHU216DAVISVP2,2013-10-11 06:57:00,
2013-10-11 03:02:00,53.8,52.7,30.00,NE,34,0.0,0.0,96,0.00,,,0.00,WUHU216DAVISVP2,2013-10-11 07:02:00,
2013-10-11 03:07:00,53.7,52.6,30.01,NE,34,0.0,0.0,96,0.00,,,0.00,WUHU216DAVISVP2,2013-10-11 07:07:00,
2013-10-11 03:12:00,53.7,52.6,30.00,NE,34,0.0,0.0,96,0.00,,,0.00,WUHU216DAVISVP2,2013-10-11 07:12:00,
2013-10-11 03:17:00,53.7,52.6,30.00,NE,34,0.0,0.0,96,0.00,,,0.00,WUHU216DAVISVP2,2013-10-11 07:17:00,
2013-10-11 03:22:00,53.9,52.8,30.00,NE,34,0.0,0.0,96,0.00,,,0.00,WUHU216DAVISVP2,2013-10-11 07:22:00,
2013-10-11 03:27:00,53.9,52.8,30.00,NE,34,0.0,0.0,96,0.00,,,0.00,WUHU216DAVISVP2,2013-10-11 07:27:00,
2013-10-11 03:32:00,53.9,52.8,30.00,NE,34,0.0,0.0,96,0.00,,,0.00,WUHU216DAVISVP2,2013-10-11 07:32:00,
2013-10-11 03:37:00,54.1,53.0,30.00,NE,34,0.0,0.0,96,0.00,,,0.00,WUHU216DAVISVP2,2013-10-11 07:37:00,
2013-10-11 03:42:00,54.3,53.2,30.00,NE,34,0.0,0.0,96,0.00,,,0.00,WUHU216DAVISVP2,2013-10-11 07:42:00,
2013-10-11 03:47:00,54.3,53.2,30.00,NE,34,0.0,0.0,96,0.00,,,0.00,WUHU216DAVISVP2,2013-10-11 07:47:00,
2013-10-11 03:52:00,54.2,53.1,30.00,NE,34,0.0,0.0,96,0.00,,,0.00,WUHU216DAVISVP2,2013-10-11 07:52:00,
2013-10-11 03:57:00,54.2,53.1,30.00,NE,34,0.0,0.0,96,0.00,,,0.00,WUHU216DAVISVP2,2013-10-11 07:57:00,
2013-10-11 04:02:00,54.1,53.0,30.00,NE,34,0.0,0.0,96,0.00,,,0.00,WUHU216DAVISVP2,2013-10-11 08:02:00,
2013-10-11 04:07:00,54.0,52.9,30.00,NE,34,0.0,0.0,96,0.00,,,0.00,WUHU216DAVISVP2,2013-10-11 08:07:00,
2013-10-11 04:12:00,54.0,52.9,30.00,NE,34,0.0,0.0,96,0.00,,,0.00,WUHU216DAVISVP2,2013-10-11 08:12:00,
2013-10-11 04:17:00,53.9,52.8,30.00,NE,34,0.0,0.0,96,0.00,,,0.00,WUHU216DAVISVP2,2013-10-11 08:17:00,
2013-10-11 04:22:00,53.8,52.7,30.00,NE,34,0.0,0.0,96,0.00,,,0.00,WUHU216DAVISVP2,2013-10-11 08:22:00,
2013-10-11 04:27:00,53.9,52.8,30.00,NE,34,0.0,0.0,96,0.00,,,0.00,WUHU216DAVISVP2,2013-10-11 08:27:00,
2013-10-11 04:32:00,53.9,52.8,30.00,NE,34,0.0,0.0,96,0.00,,,0.00,WUHU216DAVISVP2,2013-10-11 08:32:00,
2013-10-11 04:37:00,54.0,52.9,30.00,NE,34,0.0,0.0,96,0.00,,,0.00,WUHU216DAVISVP2,2013-10-11 08:37:00,
2013-10-11 04:42:00,54.1,52.9,30.01,NE,34,0.0,0.0,96,0.00,,,0.00,WUHU216DAVISVP2,2013-10-11 08:42:00,
2013-10-11 04:47:00,54.2,53.0,30.00,NE,34,0.0,0.0,96,0.00,,,0.00,WUHU216DAVISVP2,2013-10-11 08:47:00,
2013-10-11 04:52:00,54.5,53.3,30.01,NE,34,0.0,0.0,96,0.00,,,0.00,WUHU216DAVISVP2,2013-10-11 08:52:00,
2013-10-11 04:57:00,54.6,53.4,30.01,NE,34,0.0,0.0,96,0.00,,,0.00,WUHU216DAVISVP2,2013-10-11 08:57:00,
2013-10-11 05:02:00,54.8,53.6,30.01,NE,34,0.0,0.0,96,0.00,,,0.00,WUHU216DAVISVP2,2013-10-11 09:02:00,
2013-10-11 05:07:00,54.9,53.7,30.01,NE,34,0.0,0.0,96,0.00,,,0.00,WUHU216DAVISVP2,2013-10-11 09:07:00,
2013-10-11 05:12:00,54.9,53.7,30.01,NE,34,0.0,0.0,96,0.00,,,0.00,WUHU216DAVISVP2,2013-10-11 09:12:00,
2013-10-11 05:17:00,55.0,53.9,30.01,NE,34,0.0,0.0,96,0.00,,,0.00,WUHU216DAVISVP2,2013-10-11 09:17:00,
2013-10-11 05:22:00,55.0,53.9,30.01,NE,34,0.0,0.0,96,0.00,,,0.00,WUHU216DAVISVP2,2013-10-11 09:22:00,
2013-10-11 05:27:00,55.1,53.9,30.01,NE,34,0.0,0.0,96,0.00,,,0.00,WUHU216DAVISVP2,2013-10-11 09:27:00,
2013-10-11 05:32:00,55.2,54.0,30.01,NE,34,0.0,0.0,96,0.00,,,0.00,WUHU216DAVISVP2,2013-10-11 09:32:00,
2013-10-11 05:37:00,55.2,54.0,30.01,NE,34,0.0,0.0,96,0.00,,,0.00,WUHU216DAVISVP2,2013-10-11 09:37:00,
2013-10-11 05:42:00,55.3,54.1,30.01,NE,34,0.0,0.0,96,0.00,,,0.00,WUHU216DAVISVP2,2013-10-11 09:42:00,
2013-10-11 05:47:00,55.3,54.1,30.01,NE,34,0.0,0.0,96,0.00,,,0.00,WUHU216DAVISVP2,2013-10-11 09:47:00,
2013-10-11 05:52:00,55.3,54.1,30.01,NE,34,0.0,0.0,96,0.00,,,0.00,WUHU216DAVISVP2,2013-10-11 09:52:00,
2013-10-11 05:57:00,55.4,54.2,30.01,NE,34,0.0,0.0,96,0.00,,,0.00,WUHU216DAVISVP2,2013-10-11 09:57:00,
2013-10-11 06:02:00,55.4,54.2,30.01,NE,34,0.0,0.0,96,0.00,,,0.00,WUHU216DAVISVP2,2013-10-11 10:02:00,
2013-10-11 06:07:00,55.4,54.2,30.01,NE,34,0.0,0.0,96,0.00,,,0.00,WUHU216DAVISVP2,2013-10-11 10:07:00,
2013-10-11 06:12:00,55.5,54.3,30.01,NE,34,0.0,0.0,96,0.00,,,0.00,WUHU216DAVISVP2,2013-10-11 10:12:00,
2013-10-11 06:17:00,55.5,54.3,30.02,NE,34,0.0,0.0,96,0.00,,,0.00,WUHU216DAVISVP2,2013-10-11 10:17:00,
2013-10-11 06:22:00,55.6,54.4,30.02,NE,34,0.0,0.0,96,0.00,,,0.00,WUHU216DAVISVP2,2013-10-11 10:22:00,
2013-10-11 06:27:00,55.7,54.5,30.02,NE,34,0.0,0.0,96,0.00,,,0.00,WUHU216DAVISVP2,2013-10-11 10:27:00,
2013-10-11 06:32:00,55.7,54.5,30.01,NE,34,0.0,0.0,96,0.00,,,0.00,WUHU216DAVISVP2,2013-10-11 10:32:00,
2013-10-11 06:37:00,55.7,54.5,30.02,NE,34,0.0,0.0,96,0.00,,,0.00,WUHU216DAVISVP2,2013-10-11 10:37:00,
2013-10-11 06:42:00,55.7,54.5,30.02,NE,34,0.0,0.0,96,0.00,,,0.00,WUHU216DAVISVP2,2013-10-11 10:42:00,
2013-10-11 06:47:00,55.8,54.6,30.02,NE,34,0.0,0.0,96,0.00,,,0.00,WUHU216DAVISVP2,2013-10-11 10:47:00,
2013-10-11 06:52:00,55.8,54.6,30.02,NE,34,0.0,0.0,96,0.00,,,0.00,WUHU216DAVISVP2,2013-10-11 10:52:00,
2013-10-11 06:57:00,55.9,54.7,30.02,NE,34,0.0,0.0,96,0.00,,,0.00,WUHU216DAVISVP2,2013-10-11 10:57:00,
2013-10-11 07:02:00,55.9,54.7,30.02,NE,34,0.0,0.0,96,0.00,,,0.00,WUHU216DAVISVP2,2013-10-11 11:02:00,
2013-10-11 07:07:00,55.9,54.7,30.02,NE,34,0.0,0.0,96,0.00,,,0.00,WUHU216DAVISVP2,2013-10-11 11:07:00,
2013-10-11 07:12:00,55.9,54.7,30.02,NE,34,0.0,0.0,96,0.00,,,0.00,WUHU216DAVISVP2,2013-10-11 11:12:00,
2013-10-11 07:17:00,56.0,54.8,30.02,NE,34,0.0,0.0,96,0.00,,,0.00,WUHU216DAVISVP2,2013-10-11 11:17:00,
2013-10-11 07:22:00,56.0,54.8,30.02,NE,34,0.0,0.0,96,0.00,,,0.00,WUHU216DAVISVP2,2013-10-11 11:22:00,
2013-10-11 07:27:00,56.0,54.8,30.02,NE,34,0.0,0.0,96,0.00,,,0.00,WUHU216DAVISVP2,2013-10-11 11:27:00,
2013-10-11 07:32:00,56.0,54.8,30.02,NE,34,0.0,0.0,96,0.00,,,0.00,WUHU216DAVISVP2,2013-10-11 11:32:00,
2013-10-11 07:37:00,56.0,54.8,30.02,NE,34,0.0,0.0,96,0.00,,,0.00,WUHU216DAVISVP2,2013-10-11 11:37:00,
2013-10-11 07:42:00,56.1,54.9,30.02,NE,34,0.0,0.0,96,0.00,,,0.00,WUHU216DAVISVP2,2013-10-11 11:42:00,
2013-10-11 07:47:00,56.1,54.9,30.03,NE,34,0.0,0.0,96,0.01,,,0.01,WUHU216DAVISVP2,2013-10-11 11:47:00,
2013-10-11 07:52:00,56.2,55.0,30.03,NE,34,0.0,0.0,96,0.01,,,0.01,WUHU216DAVISVP2,2013-10-11 11:52:00,
2013-10-11 07:57:00,56.2,55.0,30.03,NE,34,0.0,0.0,96,0.01,,,0.01,WUHU216DAVISVP2,2013-10-11 11:57:00,
2013-10-11 08:02:00,56.3,55.1,30.03,NE,34,0.0,0.0,96,0.01,,,0.01,WUHU216DAVISVP2,2013-10-11 12:02:00,
2013-10-11 08:07:00,56.4,55.2,30.03,NE,34,0.0,0.0,96,0.01,,,0.01,WUHU216DAVISVP2,2013-10-11 12:07:00,
2013-10-11 08:12:00,56.5,55.3,30.03,NE,34,0.0,0.0,96,0.01,,,0.01,WUHU216DAVISVP2,2013-10-11 12:12:00,
2013-10-11 08:17:00,56.6,55.4,30.03,NE,34,0.0,0.0,96,0.01,,,0.01,WUHU216DAVISVP2,2013-10-11 12:17:00,
2013-10-11 08:22:00,56.6,55.4,30.03,WSW,255,1.0,1.0,96,0.01,,,0.01,WUHU216DAVISVP2,2013-10-11 12:22:00,
2013-10-11 08:27:00,56.6,55.4,30.03,WSW,255,0.0,1.0,96,0.01,,,0.01,WUHU216DAVISVP2,2013-10-11 12:27:00,
2013-10-11 08:32:00,56.7,55.5,30.03,WSW,255,0.0,1.0,96,0.01,,,0.01,WUHU216DAVISVP2,2013-10-11 12:32:00,
2013-10-11 08:37:00,56.8,55.6,30.03,WSW,255,0.0,1.0,96,0.01,,,0.01,WUHU216DAVISVP2,2013-10-11 12:37:00,
2013-10-11 08:42:00,56.8,55.6,30.03,WSW,255,0.0,0.0,96,0.01,,,0.01,WUHU216DAVISVP2,2013-10-11 12:42:00,
2013-10-11 08:47:00,57.0,55.8,30.03,West,259,1.0,1.0,96,0.00,,,0.01,WUHU216DAVISVP2,2013-10-11 12:47:00,
2013-10-11 08:52:00,57.0,55.8,30.04,West,273,0.0,1.0,96,0.00,,,0.01,WUHU216DAVISVP2,2013-10-11 12:52:00,
2013-10-11 08:57:00,57.2,56.0,30.04,WSW,255,1.0,1.0,96,0.00,,,0.01,WUHU216DAVISVP2,2013-10-11 12:57:00,
2013-10-11 09:02:00,57.2,56.0,30.04,WSW,249,1.0,1.0,96,0.00,,,0.01,WUHU216DAVISVP2,2013-10-11 13:02:00,
2013-10-11 09:07:00,57.3,56.1,30.04,WSW,249,1.0,1.0,96,0.00,,,0.01,WUHU216DAVISVP2,2013-10-11 13:07:00,
2013-10-11 09:12:00,57.5,56.3,30.04,West,263,1.0,1.0,96,0.00,,,0.01,WUHU216DAVISVP2,2013-10-11 13:12:00,
2013-10-11 09:17:00,57.6,56.4,30.04,West,281,1.0,1.0,96,0.00,,,0.01,WUHU216DAVISVP2,2013-10-11 13:17:00,
2013-10-11 09:22:00,57.9,56.7,30.04,West,260,1.0,1.0,96,0.00,,,0.01,WUHU216DAVISVP2,2013-10-11 13:22:00,
2013-10-11 09:27:00,58.0,56.5,30.04,WNW,284,1.0,1.0,95,0.00,,,0.01,WUHU216DAVISVP2,2013-10-11 13:27:00,
2013-10-11 09:32:00,58.4,56.9,30.04,WSW,253,1.0,2.0,95,0.00,,,0.01,WUHU216DAVISVP2,2013-10-11 13:32:00,
2013-10-11 09:37:00,58.8,57.3,30.04,WSW,246,1.0,2.0,95,0.00,,,0.01,WUHU216DAVISVP2,2013-10-11 13:37:00,
2013-10-11 09:42:00,58.9,57.1,30.04,West,271,1.0,2.0,94,0.00,,,0.01,WUHU216DAVISVP2,2013-10-11 13:42:00,
2013-10-11 09:47:00,59.2,57.4,30.04,WSW,246,1.0,2.0,94,0.00,,,0.01,WUHU216DAVISVP2,2013-10-11 13:47:00,
2013-10-11 09:52:00,59.6,57.5,30.04,West,266,0.0,2.0,93,0.00,,,0.01,WUHU216DAVISVP2,2013-10-11 13:52:00,
2013-10-11 09:57:00,60.0,57.6,30.04,WSW,253,1.2,2.0,92,0.00,,,0.01,WUHU216DAVISVP2,2013-10-11 13:57:00,
2013-10-11 10:02:00,60.1,57.4,30.04,WSW,257,1.1,2.0,91,0.00,,,0.01,WUHU216DAVISVP2,2013-10-11 14:02:00,
2013-10-11 10:07:00,60.1,57.4,30.04,WSW,257,1.1,2.0,91,0.00,,,0.01,WUHU216DAVISVP2,2013-10-11 14:07:00,
2013-10-11 10:12:00,60.2,57.2,30.04,WSW,248,1.1,2.0,90,0.00,,,0.01,WUHU216DAVISVP2,2013-10-11 14:12:00,
2013-10-11 10:17:00,60.2,57.2,30.04,West,273,1.0,2.0,90,0.00,,,0.01,WUHU216DAVISVP2,2013-10-11 14:17:00,
2013-10-11 10:22:00,60.1,57.4,30.04,WNW,293,0.0,2.0,91,0.00,,,0.01,WUHU216DAVISVP2,2013-10-11 14:22:00,
2013-10-11 10:27:00,60.1,57.1,30.04,WNW,288,1.0,2.0,90,0.00,,,0.01,WUHU216DAVISVP2,2013-10-11 14:27:00,
2013-10-11 10:32:00,60.3,57.3,30.04,WNW,287,1.0,2.0,90,0.00,,,0.01,WUHU216DAVISVP2,2013-10-11 14:32:00,
2013-10-11 10:37:00,60.5,57.5,30.04,WNW,302,1.0,2.0,90,0.00,,,0.01,WUHU216DAVISVP2,2013-10-11 14:37:00,
2013-10-11 10:42:00,60.7,57.7,30.04,WSW,257,1.0,2.0,90,0.00,,,0.01,WUHU216DAVISVP2,2013-10-11 14:42:00,
2013-10-11 10:47:00,61.0,57.7,30.04,WNW,288,2.0,2.0,89,0.00,,,0.01,WUHU216DAVISVP2,2013-10-11 14:47:00,
2013-10-11 10:52:00,61.1,57.8,30.03,WSW,254,1.3,2.0,89,0.00,,,0.01,WUHU216DAVISVP2,2013-10-11 14:52:00,
2013-10-11 10:57:00,61.3,57.7,30.03,WSW,256,2.0,2.0,88,0.00,,,0.01,WUHU216DAVISVP2,2013-10-11 14:57:00,
2013-10-11 11:02:00,61.3,57.4,30.03,WSW,241,2.3,4.0,87,0.00,,,0.01,WUHU216DAVISVP2,2013-10-11 15:02:00,
2013-10-11 11:07:00,61.4,57.8,30.03,West,278,1.0,4.0,88,0.00,,,0.01,WUHU216DAVISVP2,2013-10-11 15:07:00,
2013-10-11 11:12:00,61.8,58.2,30.03,NE,44,0.0,4.0,88,0.00,,,0.01,WUHU216DAVISVP2,2013-10-11 15:12:00,
2013-10-11 11:17:00,61.9,57.7,30.03,WNW,287,1.3,4.0,86,0.00,,,0.01,WUHU216DAVISVP2,2013-10-11 15:17:00,
2013-10-11 11:22:00,61.7,57.8,30.03,WNW,299,2.0,3.0,87,0.00,,,0.01,WUHU216DAVISVP2,2013-10-11 15:22:00,
2013-10-11 11:27:00,61.6,57.7,30.03,WNW,285,1.0,3.0,87,0.00,,,0.01,WUHU216DAVISVP2,2013-10-11 15:27:00,
2013-10-11 11:32:00,61.6,57.7,30.03,ENE,77,1.6,3.0,87,0.00,,,0.01,WUHU216DAVISVP2,2013-10-11 15:32:00,
2013-10-11 11:37:00,61.5,57.6,30.03,ENE,60,1.8,4.0,87,0.00,,,0.01,WUHU216DAVISVP2,2013-10-11 15:37:00,
2013-10-11 11:42:00,61.3,57.4,30.03,West,277,1.7,4.0,87,0.00,,,0.01,WUHU216DAVISVP2,2013-10-11 15:42:00,
2013-10-11 11:47:00,61.2,57.6,30.03,NE,51,1.3,4.0,88,0.00,,,0.01,WUHU216DAVISVP2,2013-10-11 15:47:00,
2013-10-11 11:52:00,61.1,58.1,30.03,West,268,3.0,4.0,90,0.00,,,0.01,WUHU216DAVISVP2,2013-10-11 15:52:00,
2013-10-11 11:57:00,60.8,57.5,30.03,North,356,1.3,4.0,89,0.00,,,0.01,WUHU216DAVISVP2,2013-10-11 15:57:00,
2013-10-11 12:02:00,60.7,57.7,30.02,NNW,341,1.0,4.0,90,0.00,,,0.01,WUHU216DAVISVP2,2013-10-11 16:02:00,
2013-10-11 12:07:00,60.6,57.9,30.03,NE,47,3.0,4.0,91,0.00,,,0.01,WUHU216DAVISVP2,2013-10-11 16:07:00,
2013-10-11 12:12:00,60.5,57.8,30.03,NNE,22,2.0,4.0,91,0.00,,,0.01,WUHU216DAVISVP2,2013-10-11 16:12:00,
2013-10-11 12:17:00,60.4,57.7,30.03,NNE,28,2.2,5.0,91,0.00,,,0.01,WUHU216DAVISVP2,2013-10-11 16:17:00,
2013-10-11 12:22:00,60.4,57.7,30.02,West,270,1.2,5.0,91,0.00,,,0.01,WUHU216DAVISVP2,2013-10-11 16:22:00,
2013-10-11 12:27:00,60.4,58.0,30.03,North,356,1.3,5.0,92,0.00,,,0.01,WUHU216DAVISVP2,2013-10-11 16:27:00,
2013-10-11 12:32:00,60.3,57.6,30.03,WNW,291,1.2,4.0,91,0.00,,,0.01,WUHU216DAVISVP2,2013-10-11 16:32:00,
2013-10-11 12:37:00,60.3,57.9,30.03,WNW,296,1.5,3.0,92,0.00,,,0.01,WUHU216DAVISVP2,2013-10-11 16:37:00,
2013-10-11 12:42:00,60.4,58.0,30.03,NNE,12,1.5,3.0,92,0.00,,,0.01,WUHU216DAVISVP2,2013-10-11 16:42:00,
2013-10-11 12:47:00,60.7,58.6,30.03,NW,312,1.8,4.0,93,0.00,,,0.01,WUHU216DAVISVP2,2013-10-11 16:47:00,
2013-10-11 12:52:00,60.7,58.3,30.02,WNW,297,1.2,4.0,92,0.00,,,0.01,WUHU216DAVISVP2,2013-10-11 16:52:00,
2013-10-11 12:57:00,61.3,59.2,30.02,NW,314,1.1,4.0,93,0.00,,,0.01,WUHU216DAVISVP2,2013-10-11 16:57:00,
2013-10-11 13:02:00,61.3,58.6,30.02,NE,41,2.5,5.0,91,0.00,,,0.01,WUHU216DAVISVP2,2013-10-11 17:02:00,
2013-10-11 13:07:00,61.2,58.5,30.02,NNE,17,1.3,5.0,91,0.00,,,0.01,WUHU216DAVISVP2,2013-10-11 17:07:00,
2013-10-11 13:12:00,61.1,58.1,30.02,NE,53,1.8,5.0,90,0.00,,,0.01,WUHU216DAVISVP2,2013-10-11 17:12:00,
2013-10-11 13:17:00,61.1,58.1,30.02,WNW,291,1.1,5.0,90,0.00,,,0.01,WUHU216DAVISVP2,2013-10-11 17:17:00,
2013-10-11 13:22:00,61.1,58.4,30.02,NW,304,1.6,5.0,91,0.00,,,0.01,WUHU216DAVISVP2,2013-10-11 17:22:00,
2013-10-11 13:27:00,61.0,58.0,30.02,NW,305,4.0,5.0,90,0.00,,,0.01,WUHU216DAVISVP2,2013-10-11 17:27:00,
2013-10-11 13:32:00,60.9,57.6,30.01,NW,321,1.6,5.0,89,0.00,,,0.01,WUHU216DAVISVP2,2013-10-11 17:32:00,
2013-10-11 13:37:00,61.0,57.4,30.01,WNW,302,2.8,6.0,88,0.00,,,0.01,WUHU216DAVISVP2,2013-10-11 17:37:00,
2013-10-11 13:42:00,61.2,57.9,30.01,WNW,298,2.9,6.0,89,0.00,,,0.01,WUHU216DAVISVP2,2013-10-11 17:42:00,
2013-10-11 13:47:00,61.3,58.0,30.01,NW,316,2.0,6.0,89,0.00,,,0.01,WUHU216DAVISVP2,2013-10-11 17:47:00,
2013-10-11 13:52:00,61.4,57.8,30.01,NNE,20,1.0,6.0,88,0.00,,,0.01,WUHU216DAVISVP2,2013-10-11 17:52:00,
2013-10-11 13:57:00,61.4,57.8,30.01,ENE,61,2.0,5.0,88,0.00,,,0.01,WUHU216DAVISVP2,2013-10-11 17:57:00,
2013-10-11 14:02:00,61.2,57.3,30.01,East,98,5.0,6.0,87,0.00,,,0.01,WUHU216DAVISVP2,2013-10-11 18:02:00,
2013-10-11 14:07:00,61.1,57.2,30.01,ENE,73,3.0,6.0,87,0.00,,,0.01,WUHU216DAVISVP2,2013-10-11 18:07:00,
2013-10-11 14:12:00,61.2,57.3,30.00,NW,310,1.0,6.0,87,0.00,,,0.01,WUHU216DAVISVP2,2013-10-11 18:12:00,
2013-10-11 14:17:00,61.4,57.2,30.00,NE,56,1.0,5.0,86,0.00,,,0.01,WUHU216DAVISVP2,2013-10-11 18:17:00,
2013-10-11 14:22:00,61.8,57.3,30.00,East,81,3.2,6.0,85,0.00,,,0.01,WUHU216DAVISVP2,2013-10-11 18:22:00,
2013-10-11 14:27:00,61.7,57.2,30.00,ENE,64,1.9,6.0,85,0.00,,,0.01,WUHU216DAVISVP2,2013-10-11 18:27:00,
2013-10-11 14:32:00,61.7,57.5,30.00,North,354,2.0,5.0,86,0.00,,,0.01,WUHU216DAVISVP2,2013-10-11 18:32:00,
2013-10-11 14:37:00,61.9,57.4,30.00,ENE,59,2.0,5.0,85,0.00,,,0.01,WUHU216DAVISVP2,2013-10-11 18:37:00,
2013-10-11 14:42:00,62.1,57.5,30.00,East,83,2.0,5.0,85,0.00,,,0.01,WUHU216DAVISVP2,2013-10-11 18:42:00,
2013-10-11 14:47:00,62.0,56.8,30.00,ENE,75,2.5,6.0,83,0.00,,,0.01,WUHU216DAVISVP2,2013-10-11 18:47:00,
2013-10-11 14:52:00,61.8,56.9,30.00,East,80,3.0,6.0,84,0.00,,,0.01,WUHU216DAVISVP2,2013-10-11 18:52:00,
2013-10-11 14:57:00,61.7,57.2,30.00,ENE,73,1.5,5.0,85,0.00,,,0.01,WUHU216DAVISVP2,2013-10-11 18:57:00,
2013-10-11 15:02:00,61.7,57.2,30.00,ENE,76,1.8,5.0,85,0.00,,,0.01,WUHU216DAVISVP2,2013-10-11 19:02:00,
2013-10-11 15:07:00,62.0,57.4,30.00,WNW,298,2.0,4.0,85,0.00,,,0.01,WUHU216DAVISVP2,2013-10-11 19:07:00,
2013-10-11 15:12:00,62.0,56.8,30.00,NNE,26,1.3,3.0,83,0.00,,,0.01,WUHU216DAVISVP2,2013-10-11 19:12:00,
2013-10-11 15:17:00,61.8,56.6,30.00,North,8,2.3,5.0,83,0.00,,,0.01,WUHU216DAVISVP2,2013-10-11 19:17:00,
2013-10-11 15:22:00,61.6,56.4,30.00,WNW,297,2.6,5.0,83,0.00,,,0.01,WUHU216DAVISVP2,2013-10-11 19:22:00,
2013-10-11 15:27:00,61.4,56.2,30.00,NE,43,1.8,5.0,83,0.00,,,0.01,WUHU216DAVISVP2,2013-10-11 19:27:00,
2013-10-11 15:32:00,61.4,56.5,30.00,NNW,335,1.0,5.0,84,0.00,,,0.01,WUHU216DAVISVP2,2013-10-11 19:32:00,
2013-10-11 15:37:00,61.4,56.5,30.00,West,277,1.0,5.0,84,0.00,,,0.01,WUHU216DAVISVP2,2013-10-11 19:37:00,
2013-10-11 15:42:00,61.6,56.7,30.00,NE,43,0.0,4.0,84,0.00,,,0.01,WUHU216DAVISVP2,2013-10-11 19:42:00,
2013-10-11 15:47:00,61.8,56.9,30.00,WNW,291,3.0,3.0,84,0.00,,,0.01,WUHU216DAVISVP2,2013-10-11 19:47:00,
2013-10-11 15:52:00,61.9,57.0,30.00,NNW,329,1.0,4.0,84,0.00,,,0.01,WUHU216DAVISVP2,2013-10-11 19:52:00,
2013-10-11 15:57:00,61.9,56.7,30.00,North,350,1.5,4.0,83,0.00,,,0.01,WUHU216DAVISVP2,2013-10-11 19:57:00,
2013-10-11 16:02:00,62.0,56.8,30.00,North,5,1.3,4.0,83,0.00,,,0.01,WUHU216DAVISVP2,2013-10-11 20:02:00,
2013-10-11 16:07:00,62.2,56.7,30.00,East,90,1.0,3.0,82,0.00,,,0.01,WUHU216DAVISVP2,2013-10-11 20:07:00,
2013-10-11 16:12:00,62.8,57.3,30.00,East,94,1.0,2.0,82,0.00,,,0.01,WUHU216DAVISVP2,2013-10-11 20:12:00,
2013-10-11 16:17:00,63.1,57.2,30.00,ENE,59,1.3,3.0,81,0.00,,,0.01,WUHU216DAVISVP2,2013-10-11 20:17:00,
2013-10-11 16:22:00,62.7,56.8,30.00,NNE,30,1.3,3.0,81,0.00,,,0.01,WUHU216DAVISVP2,2013-10-11 20:22:00,
2013-10-11 16:27:00,62.8,57.3,30.00,ENE,63,1.0,3.0,82,0.00,,,0.01,WUHU216DAVISVP2,2013-10-11 20:27:00,
2013-10-11 16:32:00,62.8,56.9,30.00,NE,52,1.2,3.0,81,0.00,,,0.01,WUHU216DAVISVP2,2013-10-11 20:32:00,
2013-10-11 16:37:00,62.7,56.8,30.00,NW,321,0.0,4.0,81,0.00,,,0.01,WUHU216DAVISVP2,2013-10-11 20:37:00,
2013-10-11 16:42:00,62.6,56.4,30.00,ENE,75,3.0,4.0,80,0.00,,,0.01,WUHU216DAVISVP2,2013-10-11 20:42:00,
2013-10-11 16:47:00,62.6,56.7,30.00,NNW,332,1.0,4.0,81,0.00,,,0.01,WUHU216DAVISVP2,2013-10-11 20:47:00,
2013-10-11 16:52:00,62.6,56.7,30.00,East,85,1.6,4.0,81,0.00,,,0.01,WUHU216DAVISVP2,2013-10-11 20:52:00,
2013-10-11 16:57:00,62.6,57.1,30.01,NE,46,1.0,4.0,82,0.00,,,0.01,WUHU216DAVISVP2,2013-10-11 20:57:00,
2013-10-11 17:02:00,62.7,56.8,30.01,ENE,62,1.1,2.0,81,0.00,,,0.01,WUHU216DAVISVP2,2013-10-11 21:02:00,
2013-10-11 17:07:00,62.6,57.1,30.01,East,79,1.0,2.0,82,0.00,,,0.01,WUHU216DAVISVP2,2013-10-11 21:07:00,
2013-10-11 17:12:00,62.4,56.5,30.01,WNW,291,2.0,3.0,81,0.00,,,0.01,WUHU216DAVISVP2,2013-10-11 21:12:00,
2013-10-11 17:17:00,62.2,56.7,30.01,NE,53,1.0,3.0,82,0.00,,,0.01,WUHU216DAVISVP2,2013-10-11 21:17:00,
2013-10-11 17:22:00,62.0,56.5,30.01,NE,42,1.4,3.0,82,0.00,,,0.01,WUHU216DAVISVP2,2013-10-11 21:22:00,
2013-10-11 17:27:00,61.9,56.4,30.01,ENE,71,1.7,4.0,82,0.00,,,0.01,WUHU216DAVISVP2,2013-10-11 21:27:00,
2013-10-11 17:32:00,62.0,56.5,30.01,ENE,59,1.0,4.0,82,0.00,,,0.01,WUHU216DAVISVP2,2013-10-11 21:32:00,
2013-10-11 17:37:00,62.1,56.9,30.02,ENE,59,1.0,4.0,83,0.00,,,0.01,WUHU216DAVISVP2,2013-10-11 21:37:00,
2013-10-11 17:42:00,62.1,56.6,30.02,NNE,23,1.0,4.0,82,0.00,,,0.01,WUHU216DAVISVP2,2013-10-11 21:42:00,
2013-10-11 17:47:00,62.0,56.5,30.02,NNE,23,1.0,1.0,82,0.00,,,0.01,WUHU216DAVISVP2,2013-10-11 21:47:00,
2013-10-11 17:52:00,62.0,56.8,30.02,NNE,23,1.0,1.0,83,0.00,,,0.01,WUHU216DAVISVP2,2013-10-11 21:52:00,
2013-10-11 17:57:00,62.0,56.8,30.02,NNE,23,0.0,1.0,83,0.00,,,0.01,WUHU216DAVISVP2,2013-10-11 21:57:00,
2013-10-11 18:02:00,62.0,56.8,30.02,NNE,23,0.0,1.0,83,0.00,,,0.01,WUHU216DAVISVP2,2013-10-11 22:02:00,
2013-10-11 18:07:00,62.0,56.8,30.02,East,88,1.0,2.0,83,0.00,,,0.01,WUHU216DAVISVP2,2013-10-11 22:07:00,
2013-10-11 18:12:00,61.9,56.7,30.03,ENE,69,1.4,2.0,83,0.00,,,0.01,WUHU216DAVISVP2,2013-10-11 22:12:00,
2013-10-11 18:17:00,61.8,56.3,30.03,East,82,2.0,3.0,82,0.00,,,0.01,WUHU216DAVISVP2,2013-10-11 22:17:00,
2013-10-11 18:22:00,61.7,56.2,30.03,East,82,1.0,3.0,82,0.00,,,0.01,WUHU216DAVISVP2,2013-10-11 22:22:00,
2013-10-11 18:27:00,61.8,56.6,30.03,East,82,0.0,3.0,83,0.00,,,0.01,WUHU216DAVISVP2,2013-10-11 22:27:00,
2013-10-11 18:32:00,61.7,56.2,30.03,East,83,1.9,3.0,82,0.00,,,0.01,WUHU216DAVISVP2,2013-10-11 22:32:00,
2013-10-11 18:37:00,61.6,56.4,30.03,East,81,1.0,3.0,83,0.00,,,0.01,WUHU216DAVISVP2,2013-10-11 22:37:00,
2013-10-11 18:42:00,61.4,56.5,30.03,East,81,0.0,2.0,84,0.00,,,0.01,WUHU216DAVISVP2,2013-10-11 22:42:00,
2013-10-11 18:47:00,61.0,56.8,30.03,East,81,1.0,2.0,86,0.00,,,0.01,WUHU216DAVISVP2,2013-10-11 22:47:00,
2013-10-11 18:52:00,60.6,56.4,30.03,East,81,0.0,1.0,86,0.00,,,0.01,WUHU216DAVISVP2,2013-10-11 22:52:00,
2013-10-11 18:57:00,60.2,56.6,30.03,East,81,1.0,1.0,88,0.00,,,0.01,WUHU216DAVISVP2,2013-10-11 22:57:00,
2013-10-11 19:02:00,59.6,56.0,30.03,East,81,0.0,1.0,88,0.00,,,0.01,WUHU216DAVISVP2,2013-10-11 23:02:00,
2013-10-11 19:07:00,59.2,55.9,30.03,East,81,0.0,1.0,89,0.00,,,0.01,WUHU216DAVISVP2,2013-10-11 23:07:00,
2013-10-11 19:12:00,59.0,56.0,30.03,East,80,0.0,1.0,90,0.00,,,0.01,WUHU216DAVISVP2,2013-10-11 23:12:00,
2013-10-11 19:17:00,58.7,55.7,30.03,East,81,0.0,0.0,90,0.00,,,0.01,WUHU216DAVISVP2,2013-10-11 23:17:00,
2013-10-11 19:22:00,58.5,55.8,30.03,East,81,1.0,1.0,91,0.00,,,0.01,WUHU216DAVISVP2,2013-10-11 23:22:00,
2013-10-11 19:27:00,58.4,55.7,30.03,East,80,0.0,1.0,91,0.00,,,0.01,WUHU216DAVISVP2,2013-10-11 23:27:00,
2013-10-11 19:32:00,58.4,56.1,30.03,East,81,0.0,1.0,92,0.00,,,0.01,WUHU216DAVISVP2,2013-10-11 23:32:00,
2013-10-11 19:37:00,58.3,55.9,30.03,East,81,0.0,1.0,92,0.00,,,0.01,WUHU216DAVISVP2,2013-10-11 23:37:00,
2013-10-11 19:42:00,58.2,55.9,30.03,East,81,0.0,0.0,92,0.00,,,0.01,WUHU216DAVISVP2,2013-10-11 23:42:00,
2013-10-11 19:47:00,58.2,55.8,30.03,East,81,0.0,0.0,92,0.00,,,0.01,WUHU216DAVISVP2,2013-10-11 23:47:00,
2013-10-11 19:52:00,58.3,56.2,30.03,East,81,0.0,0.0,93,0.00,,,0.01,WUHU216DAVISVP2,2013-10-11 23:52:00,
2013-10-11 19:57:00,58.3,56.2,30.03,East,80,0.0,0.0,93,0.00,,,0.01,WUHU216DAVISVP2,2013-10-11 23:57:00,
2013-10-11 20:02:00,58.3,56.2,30.03,East,81,0.0,0.0,93,0.00,,,0.01,WUHU216DAVISVP2,2013-10-12 00:02:00,
2013-10-11 20:07:00,58.3,56.2,30.04,East,81,0.0,0.0,93,0.00,,,0.01,WUHU216DAVISVP2,2013-10-12 00:07:00,
2013-10-11 20:12:00,58.2,56.1,30.04,East,80,0.0,0.0,93,0.00,,,0.01,WUHU216DAVISVP2,2013-10-12 00:12:00,
2013-10-11 20:17:00,58.4,56.1,30.04,NE,48,0.0,2.0,92,0.00,,,0.01,WUHU216DAVISVP2,2013-10-12 00:17:00,
2013-10-11 20:22:00,58.7,56.0,30.04,NE,35,1.0,3.0,91,0.00,,,0.01,WUHU216DAVISVP2,2013-10-12 00:22:00,
2013-10-11 20:27:00,58.9,56.2,30.04,NW,309,1.0,3.0,91,0.00,,,0.01,WUHU216DAVISVP2,2013-10-12 00:27:00,
2013-10-11 20:32:00,59.0,56.0,30.04,NW,309,0.0,3.0,90,0.00,,,0.01,WUHU216DAVISVP2,2013-10-12 00:32:00,
2013-10-11 20:37:00,59.0,55.7,30.04,NW,309,0.0,1.0,89,0.00,,,0.01,WUHU216DAVISVP2,2013-10-12 00:37:00,
2013-10-11 20:42:00,59.1,55.8,30.04,NW,309,0.0,1.0,89,0.00,,,0.01,WUHU216DAVISVP2,2013-10-12 00:42:00,
2013-10-11 20:47:00,59.1,55.8,30.03,NW,309,0.0,0.0,89,0.00,,,0.01,WUHU216DAVISVP2,2013-10-12 00:47:00,
2013-10-11 20:52:00,59.1,56.1,30.03,NW,309,0.0,0.0,90,0.00,,,0.01,WUHU216DAVISVP2,2013-10-12 00:52:00,
2013-10-11 20:57:00,59.0,56.4,30.03,NW,309,0.0,1.0,91,0.00,,,0.01,WUHU216DAVISVP2,2013-10-12 00:57:00,
2013-10-11 21:02:00,58.9,55.9,30.03,NW,309,0.0,1.0,90,0.00,,,0.01,WUHU216DAVISVP2,2013-10-12 01:02:00,
2013-10-11 21:07:00,58.9,56.2,30.03,NW,309,0.0,1.0,91,0.00,,,0.01,WUHU216DAVISVP2,2013-10-12 01:07:00,
2013-10-11 21:12:00,58.8,56.1,30.04,NW,309,0.0,1.0,91,0.00,,,0.01,WUHU216DAVISVP2,2013-10-12 01:12:00,
2013-10-11 21:17:00,58.6,55.9,30.04,NW,309,0.0,1.0,91,0.00,,,0.01,WUHU216DAVISVP2,2013-10-12 01:17:00,
2013-10-11 21:22:00,58.4,56.0,30.04,NW,309,0.0,1.0,92,0.00,,,0.01,WUHU216DAVISVP2,2013-10-12 01:22:00,
2013-10-11 21:27:00,58.3,55.9,30.04,NW,309,0.0,1.0,92,0.00,,,0.01,WUHU216DAVISVP2,2013-10-12 01:27:00,
2013-10-11 21:32:00,58.2,55.8,30.04,NW,309,0.0,0.0,92,0.00,,,0.01,WUHU216DAVISVP2,2013-10-12 01:32:00,
2013-10-11 21:37:00,58.1,55.8,30.04,NW,309,0.0,0.0,92,0.00,,,0.01,WUHU216DAVISVP2,2013-10-12 01:37:00,
2013-10-11 21:42:00,57.9,55.8,30.04,NW,309,0.0,0.0,93,0.00,,,0.01,WUHU216DAVISVP2,2013-10-12 01:42:00,
2013-10-11 21:47:00,57.7,55.7,30.04,NW,309,0.0,0.0,93,0.00,,,0.01,WUHU216DAVISVP2,2013-10-12 01:47:00,
2013-10-11 21:52:00,57.5,55.5,30.04,NW,309,0.0,0.0,93,0.00,,,0.01,WUHU216DAVISVP2,2013-10-12 01:52:00,
2013-10-11 21:57:00,57.3,55.3,30.05,NW,309,0.0,0.0,93,0.00,,,0.01,WUHU216DAVISVP2,2013-10-12 01:57:00,
2013-10-11 22:03:00,57.3,55.3,30.05,NW,309,0.0,0.0,93,0.00,,,0.01,WUHU216DAVISVP2,2013-10-12 02:03:00,
2013-10-11 22:08:00,57.3,55.3,30.05,NW,309,0.0,0.0,93,0.00,,,0.01,WUHU216DAVISVP2,2013-10-12 02:08:00,
2013-10-11 22:13:00,57.4,55.4,30.05,NW,309,0.0,1.0,93,0.00,,,0.01,WUHU216DAVISVP2,2013-10-12 02:13:00,
2013-10-11 22:18:00,57.5,55.5,30.05,NW,309,0.0,1.0,93,0.00,,,0.01,WUHU216DAVISVP2,2013-10-12 02:18:00,
2013-10-11 22:23:00,57.5,55.5,30.04,NW,309,0.0,1.0,93,0.00,,,0.01,WUHU216DAVISVP2,2013-10-12 02:23:00,
2013-10-11 22:28:00,57.5,55.5,30.05,ENE,78,2.0,2.0,93,0.00,,,0.01,WUHU216DAVISVP2,2013-10-12 02:28:00,
2013-10-11 22:33:00,57.8,55.5,30.04,ENE,78,1.0,2.0,92,0.00,,,0.01,WUHU216DAVISVP2,2013-10-12 02:33:00,
2013-10-11 22:38:00,58.0,55.7,30.04,SE,131,0.0,2.0,92,0.00,,,0.01,WUHU216DAVISVP2,2013-10-12 02:38:00,
2013-10-11 22:43:00,58.1,55.8,30.04,SE,131,0.0,2.0,92,0.00,,,0.01,WUHU216DAVISVP2,2013-10-12 02:43:00,
2013-10-11 22:48:00,58.1,55.8,30.04,SW,219,1.6,2.0,92,0.00,,,0.01,WUHU216DAVISVP2,2013-10-12 02:48:00,
2013-10-11 22:53:00,58.2,55.9,30.04,SSE,156,0.0,2.0,92,0.00,,,0.01,WUHU216DAVISVP2,2013-10-12 02:53:00,
2013-10-11 22:58:00,58.2,55.9,30.04,SE,140,0.0,2.0,92,0.00,,,0.01,WUHU216DAVISVP2,2013-10-12 02:58:00,
2013-10-11 23:03:00,58.1,56.1,30.04,SE,140,0.0,2.0,93,0.00,,,0.01,WUHU216DAVISVP2,2013-10-12 03:03:00,
2013-10-11 23:08:00,57.9,55.9,30.04,SE,139,0.0,1.0,93,0.00,,,0.01,WUHU216DAVISVP2,2013-10-12 03:08:00,
2013-10-11 23:13:00,57.8,55.5,30.04,SE,139,0.0,1.0,92,0.00,,,0.01,WUHU216DAVISVP2,2013-10-12 03:13:00,
2013-10-11 23:18:00,57.8,55.8,30.04,SE,139,0.0,0.0,93,0.00,,,0.01,WUHU216DAVISVP2,2013-10-12 03:18:00,
2013-10-11 23:23:00,57.8,55.8,30.04,SE,140,0.0,0.0,93,0.00,,,0.01,WUHU216DAVISVP2,2013-10-12 03:23:00,
2013-10-11 23:28:00,57.9,55.6,30.04,SW,214,0.0,1.0,92,0.00,,,0.01,WUHU216DAVISVP2,2013-10-12 03:28:00,
2013-10-11 23:33:00,58.0,56.0,30.04,SW,214,0.0,1.0,93,0.00,,,0.01,WUHU216DAVISVP2,2013-10-12 03:33:00,
2013-10-11 23:38:00,58.0,56.0,30.03,SSW,213,0.0,1.0,93,0.00,,,0.01,WUHU216DAVISVP2,2013-10-12 03:38:00,
2013-10-11 23:43:00,57.9,55.9,30.03,SW,214,0.0,0.0,93,0.00,,,0.01,WUHU216DAVISVP2,2013-10-12 03:43:00,
2013-10-11 23:48:00,57.9,55.9,30.03,SSW,213,0.0,0.0,93,0.00,,,0.01,WUHU216DAVISVP2,2013-10-12 03:48:00,
2013-10-11 23:53:00,57.8,55.8,30.03,SW,214,0.0,0.0,93,0.00,,,0.01,WUHU216DAVISVP2,2013-10-12 03:53:00,
2013-10-11 23:58:00,57.8,56.0,30.03,SSW,213,0.0,0.0,94,0.00,,,0.01,WUHU216DAVISVP2,2013-10-12 03:58:00,